Home   Weather   Einbeck   Past weeks

Flag for Germany Past Weather in Einbeck, Lower Saxony, Germany — Yesterday and Last 2 Weeks

Now
30 °F

Clear.


Feels Like: 30 °F
Forecast: 22 / 37 °F
Wind: 2 mph from North

Location: Kassel / Calden

Current Time: Dec 2, 2016 at 7:23:28 pm

Latest Report: Dec 2, 2016 at 6:50 pm


Visibility: 10 mi

Pressure: 30.21 "Hg

Humidity: 93%

Dew Point: 28 °F

Location of EinbeckLocation

Past Weather in Einbeck — Graph

°F

Einbeck Temperature Yesterday

Maximum temperature yesterday: 43 °F (at 11:50 am)
Minimum temperature yesterday: 39 °F (at 7:20 am)
Average temperature yesterday: 42 °F

High & Low Weather Summary for the Past Weeks

 TemperatureHumidityPressure
High55 °F (Nov 20, 5:20 pm)100% (Nov 17, 5:20 pm)30.57 "Hg (Nov 17, 5:20 pm)
Low19 °F (Nov 29, 7:20 am)36% (Nov 28, 7:50 am)29.36 "Hg (Nov 18, 7:20 am)
Average41 °F83%30.02 "Hg
* Reported Nov 17 5:20 pm — Dec 2 5:50 pm, Einbeck, Weather by CustomWeather, © 2016

Note: Actual official high and low records may vary slightly from our data, if they occured in-between our weather recording intervals... More about our weather records

Advertising

Einbeck Weather History for the Previous 24 Hours

Scroll right to see more
 ConditionsComfort  
Time TempWeatherWind HumidityBarometerVisibility
5:50 pm
Fri, Dec 2
34 °FClear.2 mph81%30.18 "Hg10 mi
5:20 pm34 °FPassing clouds.3 mph81%30.18 "HgN/A
4:50 pm36 °FClear.6 mph70%30.18 "Hg10 mi
4:20 pm36 °FClear.5 mph75%30.18 "Hg10 mi
3:50 pm37 °FSunny.7 mph70%30.18 "Hg10 mi
3:20 pm39 °FSunny.8 mph65%30.18 "Hg10 mi
2:50 pm41 °FPassing clouds.8 mph61%30.15 "HgN/A
2:20 pm41 °FPassing clouds.7 mph66%30.15 "HgN/A
1:50 pm43 °FScattered clouds.10 mph61%30.15 "HgN/A
1:20 pm43 °FScattered clouds.10 mph66%30.15 "HgN/A
12:50 pm41 °FScattered clouds.10 mph70%30.15 "HgN/A
12:20 pm41 °FScattered clouds.9 mph70%30.15 "HgN/A
11:50 am43 °FPassing clouds.8 mph76%30.15 "HgN/A
11:20 am41 °FScattered clouds.8 mph81%30.15 "HgN/A
10:50 am41 °FPartly sunny.6 mph87%30.15 "HgN/A
10:20 am41 °FPartly sunny.10 mph87%30.12 "HgN/A
9:50 am41 °FBroken clouds.9 mph93%30.12 "HgN/A
9:20 am41 °FLight rain. Cloudy.12 mph93%30.09 "HgN/A
8:50 am43 °FPartly sunny.15 mph93%30.09 "HgN/A
8:20 am43 °FCloudy.17 mph100%30.07 "HgN/A
7:50 am43 °FLight rain. Mostly cloudy.13 mph100%30.07 "Hg5 mi
7:20 am43 °FLight rain. Passing clouds.14 mph100%30.04 "Hg4 mi
7:50 pm
Thu, Dec 1
43 °FLight rain. Mostly cloudy.15 mph93%30.09 "Hg5 mi
7:20 pm43 °FDrizzle. Overcast.16 mph93%30.09 "Hg4 mi
Weather by CustomWeather, © 2016

See weather overviewHow to use our weather pages